FENGYUN 1C DEB

Satellite information

Favourite Embed

Satellite Type and Status

DEBRISIN ORBIT

Key statistics

Satellite FENGYUN 1C DEB at a glance.

Uptime

9664

Days in orbit

Revolutions

≈ 14.1

Per day

Orbit

SSO

Sun Synchronous Orbit

Inclination

99.7

Latest

Satellite identification and parameters

Extended collection of information and parameters for FENGYUN 1C DEB.

Object identification

Identified? True

Debris? True

Object name: FENGYUN 1C DEB

International designator: 1999-025DHF

Object number (NORAD): 33718

Object ID (CCSDS): 33718

Country: PEOPLES REPUBLIC OF CHINA (PRC)

Current information (Y/N): Y

RCS size: SMALL

Orbital parameters

Period: 102.295 minutes

Inclination: 99.662 deg

SMA: 7245.434 km

Apoapsis: 940.161 km

Periapsis: 794.437 km

RAAN: 18.5586 deg

Eccentricy: 0.0100563

Argument of periapsis: 102.1077 deg

Mean anomaly: 259.1378 deg

Mean motion: 14.07687131 rev/day

Mean motion (dot): 0.00003942 rev/day2

B* drag term: 0.0022528646 1/REarth

Two-line elements (TLE)

Creation date: Oct. 23, 2025, 2:46 a.m.

Reference frame: TEME

Reference center: EARTH

Epoch: Oct. 22, 2025, 12:08 p.m. UTC

TLE line 0: 0 FENGYUN 1C DEB

TLE line 1: 1 33718U 99025DHF 25295.50590161 .00003942 00000-0 22529-2 0 9997

TLE line 2: 2 33718 99.6620 18.5586 0100563 102.1077 259.1378 14.07687131684654

Live tracking on map

Real-time ground track for satellite FENGYUN 1C DEB.

In-orbit conjunctions

A list of the most updated potential collisions computed for object FENGYUN 1C DEB.

Target Orbit TCA Probability of collision Miss distance Type
SOLRAD 7A LEO 2025-09-29 00:49:01 0.0001311087 134.0 (m) PAYLOAD
COSMOS 1677 LEO 2024-11-03 04:34:44 0.0001551439 741.0 (m) PAYLOAD
SL-3 R/B LEO 2024-07-02 12:07:11 0.0002334668 472.0 (m) ROCKET BODY

Associated space launch

Chinese polar orbiting meteorological satellite

FENGYUN 1C DEB was lifted into orbit during the mission ‘Long March 4B | Feng Yun 1C’, on board a Long March 4B space rocket.

The launch took place on May 10, 1999, 1:33 a.m. from Launch Complex 7.

For more information about the launch, click the button.

Launch to space Long March 4B | Feng Yun 1C
Long March 4B | Feng Yun 1C

Agency: N/A

Status: Launch Successful

Launch date: May 10, 1999, 1:33 a.m. UTC

Rocket: Long March 4B

Launch pad: Launch Complex 7

Location: Taiyuan Satellite Launch Center, People's Republic of China

...

Latest news about this satellite

There are no fresh news available about this satellite. Check back as we update our databases every day.


Newsletter sign-up

Weekly statistics, charts and insights to help you stay on top of the space industry.